Moab, UT

2:16 PM MST on December 12, 2019 (GMT -0700)
Canyonlands

Weather History for KCNY - June, 2019

Change the Weather History Date:

Sunday, June 9, 2019

  Actual Average Record
Temperature  
Mean Temperature 59 °F 71 °F  
Max Temperature 76 °F 88 °F 109 °F (1990)
Min Temperature 42 °F 54 °F 41 °F (1950)
Degree Days  
Heating Degree Days 6 1  
Month to date heating degree days 6 11  
Since 1 June heating degree days 6 11  
Since 1 July heating degree days 5809 5571  
Cooling Degree Days 0 7  
Month to date cooling degree days 56 51  
Year to date cooling degree days 71 115  
Since 1 June cooling degree days 56 51  
Growing Degree Days 10 (Base 50)    
Moisture  
Dew Point 14 °F    
Average Humidity 18    
Maximum Humidity 25    
Minimum Humidity 10    
Precipitation  
Precipitation 0.00 in 0.02 in 0.65 in (1941)
Month to date precipitation T 0.15  
Year to date precipitation 5.98 3.35  
Sea Level Pressure  
Sea Level Pressure 30.24 in    
Wind  
Wind Speed 7 mph (North)    
Max Wind Speed 20 mph    
Max Gust Speed 29 mph    
Visibility 10 miles    
Events      
T = Trace of Precipitation, MM = Missing Value Source: NWS Daily Summary

Daily Weather History Graph

Daily Weather History Graph

Search for Another Location

Airport or City:

Astronomy

Jun. 09, 2019 Rise Set
Actual Time 5:53 AM MDT 8:42 PM MDT
Civil Twilight 5:22 AM MDT 9:14 PM MDT
Nautical Twilight 4:42 AM MDT 9:54 PM MDT
Astronomical Twilight 3:56 AM MDT 10:40 PM MDT
Moon 12:34 PM MDT (6/9) 1:26 AM MDT (6/9)
Length of Visible Light 15h 52m
Length of Day
14h 49m
Waxing Crescent, 44% of the Moon is Illuminated
Jun 9
Waxing Crescent
Jun 10
First Quarter
Jun 17
Full
Jun 25
Last Quarter
Jul 2
New

Hourly Weather History & Observations

Time (MDT) Temp. Dew Point Humidity Pressure Visibility Wind Dir Wind Speed Gust Speed Precip Events Conditions
12:53 AM 57.9 °F 10.9 °F 16% 30.14 in 10.0 mi WNW 13.8 mph - N/A   Clear
1:53 AM 54.0 °F 14.0 °F 21% 30.16 in 10.0 mi NNW 11.5 mph - N/A   Clear
2:53 AM 52.0 °F 12.9 °F 21% 30.18 in 10.0 mi WNW 5.8 mph - N/A   Clear
3:53 AM 55.0 °F 7.0 °F 15% 30.19 in 10.0 mi NW 6.9 mph - N/A   Clear
4:53 AM 46.9 °F 10.9 °F 23% 30.23 in 10.0 mi Variable 4.6 mph - N/A   Clear
5:53 AM 45.0 °F 10.9 °F 25% 30.25 in 10.0 mi Calm Calm - N/A   Clear
6:53 AM 46.9 °F 12.9 °F 25% 30.28 in 10.0 mi Calm Calm - N/A   Clear
7:53 AM 55.9 °F 19.0 °F 24% 30.29 in 10.0 mi ENE 5.8 mph - N/A   Clear
8:53 AM 60.1 °F 19.0 °F 20% 30.30 in 10.0 mi ENE 17.3 mph 29.9 mph N/A   Clear
9:53 AM 62.1 °F 19.0 °F 19% 30.30 in 10.0 mi ENE 15.0 mph 23.0 mph N/A   Clear
10:53 AM 64.0 °F 19.0 °F 18% 30.31 in 10.0 mi ENE 16.1 mph 24.2 mph N/A   Clear
11:53 AM 66.9 °F 18.0 °F 15% 30.29 in 10.0 mi East 9.2 mph 21.9 mph N/A   Clear
12:53 PM 68.0 °F 17.1 °F 14% 30.29 in 10.0 mi North - - N/A   Clear
1:53 PM 70.0 °F 16.0 °F 13% 30.28 in 10.0 mi Variable 3.5 mph 18.4 mph N/A   Clear
2:53 PM 72.0 °F 14.0 °F 11% 30.27 in 10.0 mi East 8.1 mph - N/A   Clear
3:53 PM 75.0 °F 15.1 °F 10% 30.24 in 10.0 mi Variable 5.8 mph - N/A   Clear
4:53 PM 73.9 °F 15.1 °F 11% 30.24 in 10.0 mi NNW 3.5 mph - N/A   Clear
5:53 PM 75.0 °F 15.1 °F 10% 30.23 in 10.0 mi WNW 11.5 mph - N/A   Clear
6:53 PM 75.0 °F 15.1 °F 10% 30.21 in 10.0 mi Calm Calm - N/A   Clear
7:53 PM 73.0 °F 17.1 °F 12% 30.19 in 10.0 mi NNW 9.2 mph - N/A   Clear
8:53 PM 68.0 °F 17.1 °F 14% 30.19 in 10.0 mi NNW 9.2 mph - N/A   Clear
9:53 PM 66.9 °F 9.0 °F 10% 30.20 in 10.0 mi NNE 8.1 mph - N/A   Clear
10:53 PM 60.1 °F 10.9 °F 14% 30.22 in 10.0 mi Calm Calm - N/A   Clear
11:53 PM 57.0 °F 12.0 °F 17% 30.22 in 10.0 mi Calm Calm - N/A   Clear